| time (UTC) | temp C | wind direction | speed KPH | gust KPH | rain 1hr cm | rain 24hr cm | rain mn cm | humidity % | barometer mb |
| 20260505200726 | 23 | 161 | 12.9 | 20.9 | 0.00 | 0.00 | 0.00 | 45 | 1004.1 |
| 20260505200222 | 24 | 141 | 12.9 | 22.5 | 0.00 | 0.00 | 0.00 | 44 | 1003.8 |
| 20260505195718 | 25 | 221 | 6.4 | 11.3 | 0.00 | 0.00 | 0.00 | 44 | 1004.2 |
| 20260505195216 | 25 | 150 | 11.3 | 25.7 | 0.00 | 0.00 | 0.00 | 44 | 1004.1 |
| 20260505194713 | 25 | 128 | 4.8 | 12.9 | 0.00 | 0.00 | 0.00 | 44 | 1004.1 |
| 20260505194209 | 25 | 203 | 19.3 | 24.1 | 0.00 | 0.00 | 0.00 | 42 | 1004.3 |
| 20260505193705 | 25 | 159 | 6.4 | 14.5 | 0.00 | 0.00 | 0.00 | 44 | 1004.4 |
| 20260505193203 | 24 | 184 | 4.8 | 20.9 | 0.00 | 0.00 | 0.00 | 44 | 1004.1 |
| 20260505192701 | 24 | 252 | 11.3 | 20.9 | 0.00 | 0.00 | 0.00 | 43 | 1004.3 |
| 20260505192158 | 25 | 122 | 24.1 | 38.6 | 0.00 | 0.00 | 0.00 | 42 | 1004.5 |
| 20260505191656 | 25 | 152 | 3.2 | 14.5 | 0.00 | 0.00 | 0.00 | 44 | 1004.5 |
| 20260505191154 | 25 | 171 | 4.8 | 17.7 | 0.00 | 0.00 | 0.00 | 42 | 1004.6 |
| 20260505190650 | 25 | 119 | 9.7 | 14.5 | 0.00 | 0.00 | 0.00 | 42 | 1004.3 |
| 20260505190149 | 25 | 142 | 9.7 | 17.7 | 0.00 | 0.00 | 0.00 | 42 | 1004.5 |
| 20260505185646 | 25 | 184 | 6.4 | 14.5 | 0.00 | 0.00 | 0.00 | 43 | 1004.7 |
| 20260505185142 | 25 | 148 | 8.0 | 22.5 | 0.00 | 0.00 | 0.00 | 43 | 1004.6 |
| 20260505184639 | 25 | 130 | 6.4 | 11.3 | 0.00 | 0.00 | 0.00 | 43 | 1004.8 |
| 20260505184136 | 25 | 194 | 6.4 | 11.3 | 0.00 | 0.00 | 0.00 | 43 | 1004.8 |
| 20260505183633 | 25 | 157 | 6.4 | 12.9 | 0.00 | 0.00 | 0.00 | 42 | 1004.9 |
| 20260505183131 | 25 | 158 | 14.5 | 24.1 | 0.00 | 0.00 | 0.00 | 42 | 1004.9 |
| 20260505182627 | 24 | 208 | 8.0 | 14.5 | 0.00 | 0.00 | 0.00 | 43 | 1004.8 |
| 20260505182124 | 24 | 177 | 6.4 | 12.9 | 0.00 | 0.00 | 0.00 | 43 | 1004.8 |
| 20260505181620 | 24 | 143 | 6.4 | 14.5 | 0.00 | 0.00 | 0.00 | 45 | 1005.2 |
| 20260505181118 | 24 | 195 | 6.4 | 12.9 | 0.00 | 0.00 | 0.00 | 43 | 1005.1 |
| 20260505180613 | 23 | 172 | 3.2 | 6.4 | 0.00 | 0.00 | 0.00 | 44 | 1005.2 |
| 20260505180111 | 23 | 221 | 6.4 | 16.1 | 0.00 | 0.00 | 0.00 | 44 | 1005.3 |
| 20260505175607 | 23 | 202 | 8.0 | 12.9 | 0.00 | 0.00 | 0.00 | 45 | 1005.2 |
| 20260505175103 | 23 | 232 | 1.6 | 16.1 | 0.00 | 0.00 | 0.00 | 46 | 1005.5 |
| 20260505174600 | 23 | 170 | 3.2 | 16.1 | 0.00 | 0.00 | 0.00 | 46 | 1005.6 |
| 20260505174056 | 22 | 208 | 4.8 | 17.7 | 0.00 | 0.00 | 0.00 | 46 | 1005.8 |
| 20260505173553 | 22 | 246 | 6.4 | 12.9 | 0.00 | 0.00 | 0.00 | 48 | 1005.9 |
| 20260505173050 | 22 | 166 | 9.7 | 14.5 | 0.00 | 0.00 | 0.00 | 47 | 1005.7 |
| 20260505172548 | 22 | 219 | 11.3 | 14.5 | 0.00 | 0.00 | 0.00 | 47 | 1006.0 |
| 20260505172045 | 22 | 152 | 6.4 | 22.5 | 0.00 | 0.00 | 0.00 | 46 | 1005.9 |
| 20260505171545 | 22 | 210 | 16.1 | 20.9 | 0.00 | 0.00 | 0.00 | 46 | 1006.0 |
| 20260505171042 | 22 | 205 | 6.4 | 14.5 | 0.00 | 0.00 | 0.00 | 47 | 1006.1 |
| 20260505170539 | 22 | 160 | 8.0 | 12.9 | 0.00 | 0.00 | 0.00 | 47 | 1006.0 |
| 20260505170036 | 22 | 214 | 8.0 | 12.9 | 0.00 | 0.00 | 0.00 | 47 | 1006.1 |
| 20260505165531 | 22 | 199 | 6.4 | 14.5 | 0.00 | 0.00 | 0.00 | 47 | 1006.2 |
| 20260505165026 | 22 | 194 | 3.2 | 14.5 | 0.00 | 0.00 | 0.00 | 47 | 1006.5 |
| 20260505164523 | 22 | 79 | 8.0 | 20.9 | 0.00 | 0.00 | 0.00 | 46 | 1006.6 |
| 20260505164021 | 22 | 196 | 6.4 | 16.1 | 0.00 | 0.00 | 0.00 | 47 | 1006.4 |
| 20260505163520 | 22 | 97 | 9.7 | 14.5 | 0.00 | 0.00 | 0.00 | 47 | 1006.3 |
| 20260505163016 | 22 | 220 | 8.0 | 20.9 | 0.00 | 0.00 | 0.00 | 47 | 1006.6 |
| 20260505162515 | 23 | 202 | 8.0 | 17.7 | 0.00 | 0.00 | 0.00 | 45 | 1006.6 |
| 20260505162011 | 22 | 178 | 3.2 | 9.7 | 0.00 | 0.00 | 0.00 | 47 | 1006.7 |
| 20260505161508 | 22 | 172 | 8.0 | 11.3 | 0.00 | 0.00 | 0.00 | 48 | 1006.8 |
| 20260505161006 | 22 | 202 | 3.2 | 11.3 | 0.00 | 0.00 | 0.00 | 47 | 1006.8 |
| 20260505160503 | 22 | 228 | 6.4 | 14.5 | 0.00 | 0.00 | 0.00 | 46 | 1006.8 |
| 20260505152940 | 21 | 147 | 3.2 | 6.4 | 0.00 | 0.00 | 0.00 | 49 | 1007.6 |
| 20260505152437 | 20 | 184 | 6.4 | 9.7 | 0.00 | 0.00 | 0.00 | 49 | 1007.6 |
| 20260505151938 | 20 | 156 | 4.8 | 12.9 | 0.00 | 0.00 | 0.00 | 49 | 1008.0 |
| 20260505151433 | 20 | 194 | 3.2 | 9.7 | 0.00 | 0.00 | 0.00 | 50 | 1007.7 |
| 20260505150931 | 20 | 156 | 4.8 | 11.3 | 0.00 | 0.00 | 0.00 | 49 | 1007.7 |
| 20260505150428 | 20 | 247 | 1.6 | 3.2 | 0.00 | 0.00 | 0.00 | 50 | 1007.6 |
| 20260505140358 | 18 | 49 | 1.6 | 4.8 | 0.00 | 0.00 | 0.00 | 52 | 1008.0 |
| 20260505124811 | 16 | 151 | 4.8 | 11.3 | 0.00 | 0.00 | 0.00 | 56 | 1008.3 |
| 20260505124308 | 16 | 150 | 8.0 | 11.3 | 0.00 | 0.00 | 0.00 | 57 | 1008.3 |
| 20260505123804 | 15 | 209 | 3.2 | 9.7 | 0.00 | 0.00 | 0.00 | 58 | 1008.4 |
| 20260505123301 | 15 | 146 | 6.4 | 9.7 | 0.00 | 0.00 | 0.00 | 59 | 1008.2 |
| 20260505122757 | 15 | 240 | 3.2 | 4.8 | 0.00 | 0.00 | 0.00 | 60 | 1008.4 |
| 20260505122255 | 15 | 189 | 1.6 | 6.4 | 0.00 | 0.00 | 0.00 | 61 | 1008.5 |
| 20260505121751 | 15 | 180 | 0.0 | 11.3 | 0.00 | 0.00 | 0.00 | 62 | 1008.8 |
| 20260505121248 | 15 | 211 | 4.8 | 12.9 | 0.00 | 0.00 | 0.00 | 61 | 1008.9 |
| 20260505120744 | 14 | 145 | 3.2 | 9.7 | 0.00 | 0.00 | 0.00 | 62 | 1008.7 |
| 20260505120240 | 14 | 161 | 4.8 | 12.9 | 0.00 | 0.00 | 0.00 | 63 | 1008.5 |
| 20260505115739 | 13 | 213 | 4.8 | 6.4 | 0.00 | 0.00 | 0.00 | 64 | 1008.8 |
| 20260505115237 | 13 | 205 | 3.2 | 9.7 | 0.00 | 0.00 | 0.00 | 65 | 1008.7 |
| 20260505114734 | 13 | 147 | 6.4 | 6.4 | 0.00 | 0.00 | 0.00 | 67 | 1008.8 |
| 20260505114230 | 12 | 209 | 4.8 | 6.4 | 0.00 | 0.00 | 0.00 | 68 | 1008.7 |
| 20260505113727 | 12 | 167 | 4.8 | 6.4 | 0.00 | 0.00 | 0.00 | 69 | 1008.8 |
| 20260505113223 | 12 | 229 | 1.6 | 4.8 | 0.00 | 0.00 | 0.00 | 70 | 1008.7 |
| 20260505112720 | 12 | 183 | 3.2 | 4.8 | 0.00 | 0.00 | 0.00 | 70 | 1008.7 |
| 20260505112218 | 12 | 198 | 1.6 | 6.4 | 0.00 | 0.00 | 0.00 | 70 | 1009.0 |
| 20260505111717 | 12 | 146 | 4.8 | 6.4 | 0.00 | 0.00 | 0.00 | 70 | 1008.6 |
| 20260505111214 | 11 | 248 | 0.0 | 4.8 | 0.00 | 0.00 | 0.00 | 71 | 1008.7 |
| 20260505110709 | 11 | 240 | 3.2 | 4.8 | 0.00 | 0.00 | 0.00 | 71 | 1008.8 |
| 20260505110207 | 11 | 237 | 1.6 | 3.2 | 0.00 | 0.00 | 0.00 | 72 | 1008.8 |
| 20260505102143 | 10 | 169 | 1.6 | 3.2 | 0.00 | 0.00 | 0.00 | 76 | 1008.5 |
| 20260505101641 | 10 | 249 | 0.0 | 3.2 | 0.00 | 0.00 | 0.00 | 77 | 1008.7 |
| 20260505101137 | 10 | 249 | 0.0 | 0.0 | 0.00 | 0.00 | 0.00 | 77 | 1008.7 |
| 20260505100633 | 9 | 235 | 0.0 | 1.6 | 0.00 | 0.00 | 0.00 | 77 | 1008.5 |
| 20260505100130 | 9 | 246 | 0.0 | 3.2 | 0.00 | 0.00 | 0.00 | 77 | 1008.5 |
| 20260505095627 | 9 | 243 | 0.0 | 0.0 | 0.00 | 0.00 | 0.00 | 77 | 1008.6 |
| 20260505095123 | 9 | 244 | 0.0 | 1.6 | 0.00 | 0.00 | 0.00 | 77 | 1008.6 |
| 20260505094620 | 9 | 239 | 0.0 | 1.6 | 0.00 | 0.00 | 0.00 | 77 | 1008.4 |
| 20260505094116 | 9 | 251 | 0.0 | 1.6 | 0.00 | 0.00 | 0.00 | 77 | 1008.4 |
| 20260505093612 | 9 | 144 | 1.6 | 4.8 | 0.00 | 0.00 | 0.00 | 77 | 1008.4 |
| 20260505093110 | 9 | 217 | 1.6 | 3.2 | 0.00 | 0.00 | 0.00 | 77 | 1008.6 |
| 20260505092607 | 9 | 254 | 0.0 | 0.0 | 0.00 | 0.00 | 0.00 | 77 | 1008.6 |
| 20260505092106 | 9 | 205 | 0.0 | 1.6 | 0.00 | 0.00 | 0.00 | 77 | 1008.4 |
| 20260505091602 | 9 | 244 | 0.0 | 0.0 | 0.00 | 0.00 | 0.00 | 76 | 1008.5 |
| 20260505091100 | 9 | 291 | 0.0 | 0.0 | 0.00 | 0.00 | 0.00 | 76 | 1008.5 |
| 20260505090558 | 9 | 254 | 0.0 | 0.0 | 0.00 | 0.00 | 0.00 | 76 | 1008.6 |
| 20260505090056 | 9 | 255 | 0.0 | 0.0 | 0.00 | 0.00 | 0.00 | 76 | 1008.5 |
| 20260505085553 | 9 | 199 | 1.6 | 1.6 | 0.00 | 0.00 | 0.00 | 77 | 1008.7 |
| 20260505085051 | 9 | 278 | 0.0 | 0.0 | 0.00 | 0.00 | 0.00 | 77 | 1008.7 |
| 20260505084549 | 9 | 263 | 0.0 | 0.0 | 0.00 | 0.00 | 0.00 | 77 | 1008.6 |
| 20260505084047 | 9 | 266 | 0.0 | 0.0 | 0.00 | 0.00 | 0.00 | 77 | 1008.5 |
| 20260505083544 | 8 | 251 | 0.0 | 0.0 | 0.00 | 0.00 | 0.00 | 77 | 1008.6 |
| 20260505083040 | 8 | 274 | 0.0 | 0.0 | 0.00 | 0.00 | 0.00 | 77 | 1008.8 |
| 20260505082536 | 8 | 276 | 0.0 | 0.0 | 0.00 | 0.00 | 0.00 | 77 | 1008.8 |
| 20260505082033 | 8 | 267 | 0.0 | 1.6 | 0.00 | 0.00 | 0.00 | 77 | 1008.8 |
| 20260505081530 | 8 | 290 | 0.0 | 0.0 | 0.00 | 0.00 | 0.00 | 76 | 1008.6 |
| 20260505081027 | 9 | 280 | 0.0 | 0.0 | 0.00 | 0.00 | 0.00 | 76 | 1008.8 |
| 20260505080523 | 9 | 297 | 0.0 | 0.0 | 0.00 | 0.00 | 0.00 | 76 | 1008.7 |
| 20260505080020 | 9 | 250 | 0.0 | 1.6 | 0.00 | 0.00 | 0.00 | 76 | 1008.7 |
| 20260505075516 | 9 | 281 | 0.0 | 0.0 | 0.00 | 0.00 | 0.00 | 76 | 1008.8 |
| 20260505075013 | 9 | 201 | 0.0 | 1.6 | 0.00 | 0.00 | 0.00 | 76 | 1008.7 |
| 20260505074510 | 9 | 271 | 0.0 | 0.0 | 0.00 | 0.00 | 0.00 | 75 | 1008.7 |
| 20260505074007 | 9 | 271 | 0.0 | 0.0 | 0.00 | 0.00 | 0.00 | 75 | 1008.7 |
| 20260505073504 | 10 | 253 | 0.0 | 0.0 | 0.00 | 0.00 | 0.00 | 74 | 1008.6 |
| 20260505073002 | 10 | 237 | 1.6 | 3.2 | 0.00 | 0.00 | 0.00 | 74 | 1008.7 |
| 20260505072458 | 10 | 158 | 1.6 | 1.6 | 0.00 | 0.00 | 0.00 | 73 | 1008.8 |
| 20260505071954 | 10 | 253 | 0.0 | 3.2 | 0.00 | 0.00 | 0.00 | 73 | 1008.7 |
| 20260505071450 | 10 | 192 | 1.6 | 3.2 | 0.00 | 0.00 | 0.00 | 74 | 1008.8 |
| 20260505070948 | 10 | 228 | 1.6 | 1.6 | 0.00 | 0.00 | 0.00 | 74 | 1008.5 |
| 20260505070445 | 10 | 236 | 0.0 | 0.0 | 0.00 | 0.00 | 0.00 | 75 | 1008.6 |
| 20260505065940 | 10 | 244 | 0.0 | 1.6 | 0.00 | 0.00 | 0.00 | 75 | 1008.8 |
| 20260505065437 | 10 | 194 | 1.6 | 3.2 | 0.00 | 0.00 | 0.00 | 75 | 1008.5 |
| 20260505064934 | 9 | 221 | 3.2 | 3.2 | 0.00 | 0.00 | 0.00 | 75 | 1008.6 |
| 20260505064431 | 9 | 211 | 0.0 | 1.6 | 0.00 | 0.00 | 0.00 | 75 | 1008.6 |
| 20260505063929 | 9 | 257 | 0.0 | 1.6 | 0.00 | 0.00 | 0.00 | 75 | 1008.5 |
| 20260505063425 | 10 | 264 | 0.0 | 1.6 | 0.00 | 0.00 | 0.00 | 75 | 1008.5 |
| 20260505062922 | 10 | 226 | 0.0 | 3.2 | 0.00 | 0.00 | 0.00 | 75 | 1008.5 |
| 20260505062419 | 10 | 257 | 0.0 | 3.2 | 0.00 | 0.00 | 0.00 | 75 | 1008.6 |
| 20260505061915 | 10 | 241 | 1.6 | 1.6 | 0.00 | 0.00 | 0.00 | 75 | 1008.5 |
| 20260505061414 | 10 | 148 | 0.0 | 0.0 | 0.00 | 0.00 | 0.00 | 75 | 1008.8 |
| 20260505060911 | 9 | 209 | 0.0 | 0.0 | 0.00 | 0.00 | 0.00 | 76 | 1008.5 |
| 20260505060408 | 9 | 265 | 0.0 | 1.6 | 0.00 | 0.00 | 0.00 | 76 | 1008.5 |
| 20260505055904 | 9 | 149 | 0.0 | 1.6 | 0.00 | 0.00 | 0.00 | 77 | 1008.5 |
| 20260505055400 | 9 | 117 | 1.6 | 1.6 | 0.00 | 0.00 | 0.00 | 77 | 1008.5 |
| 20260505054857 | 9 | 244 | 0.0 | 1.6 | 0.00 | 0.00 | 0.00 | 77 | 1008.6 |
| 20260505054354 | 9 | 325 | 0.0 | 1.6 | 0.00 | 0.00 | 0.00 | 77 | 1008.5 |
| 20260505053853 | 9 | 248 | 0.0 | 1.6 | 0.00 | 0.00 | 0.00 | 77 | 1008.4 |
| 20260505053350 | 9 | 228 | 0.0 | 1.6 | 0.00 | 0.00 | 0.00 | 77 | 1008.4 |
| 20260505052846 | 9 | 194 | 1.6 | 1.6 | 0.00 | 0.00 | 0.00 | 77 | 1008.5 |
| 20260505052343 | 9 | 223 | 1.6 | 3.2 | 0.00 | 0.00 | 0.00 | 77 | 1008.4 |
| 20260505051840 | 9 | 201 | 0.0 | 1.6 | 0.00 | 0.00 | 0.00 | 78 | 1008.4 |
| 20260505051337 | 9 | 160 | 3.2 | 3.2 | 0.00 | 0.00 | 0.00 | 78 | 1008.4 |
| 20260505050836 | 9 | 260 | 0.0 | 3.2 | 0.00 | 0.00 | 0.00 | 78 | 1008.4 |
| 20260505050334 | 9 | 128 | 0.0 | 4.8 | 0.00 | 0.00 | 0.00 | 78 | 1008.3 |
| 20260505041301 | 9 | 253 | 0.0 | 0.0 | 0.00 | 0.00 | 0.00 | 78 | 1008.1 |
| 20260505040758 | 9 | 253 | 0.0 | 0.0 | 0.00 | 0.00 | 0.00 | 78 | 1008.2 |
| 20260505040256 | 9 | 253 | 0.0 | 0.0 | 0.00 | 0.00 | 0.00 | 77 | 1008.1 |
| 20260505035752 | 9 | 252 | 0.0 | 0.0 | 0.00 | 0.05 | 0.05 | 77 | 1008.1 |
| 20260505035248 | 10 | 260 | 0.0 | 0.0 | 0.00 | 0.05 | 0.05 | 77 | 1008.3 |
| 20260505034745 | 10 | 250 | 0.0 | 1.6 | 0.00 | 0.05 | 0.05 | 78 | 1008.2 |
| 20260505034242 | 9 | 268 | 0.0 | 0.0 | 0.00 | 0.05 | 0.05 | 79 | 1008.0 |
| 20260505033738 | 9 | 271 | 0.0 | 0.0 | 0.00 | 0.05 | 0.05 | 80 | 1008.2 |
| 20260505033236 | 9 | 254 | 0.0 | 0.0 | 0.00 | 0.05 | 0.05 | 82 | 1008.0 |
| 20260505032734 | 8 | 269 | 0.0 | 0.0 | 0.00 | 0.05 | 0.05 | 84 | 1007.9 |
| 20260505032230 | 8 | 260 | 0.0 | 0.0 | 0.00 | 0.05 | 0.05 | 85 | 1007.8 |
| 20260505031728 | 8 | 260 | 0.0 | 0.0 | 0.00 | 0.05 | 0.05 | 85 | 1007.8 |
| 20260505031224 | 8 | 260 | 0.0 | 0.0 | 0.00 | 0.05 | 0.05 | 84 | 1008.2 |
| 20260505030721 | 8 | 260 | 0.0 | 0.0 | 0.00 | 0.05 | 0.05 | 84 | 1008.0 |
| 20260505030217 | 8 | 260 | 0.0 | 0.0 | 0.00 | 0.05 | 0.05 | 84 | 1007.9 |
| 20260505025713 | 8 | 260 | 0.0 | 0.0 | 0.00 | 0.05 | 0.05 | 83 | 1008.1 |
| 20260505025211 | 9 | 260 | 0.0 | 0.0 | 0.00 | 0.05 | 0.05 | 82 | 1008.1 |
| 20260505024709 | 9 | 260 | 0.0 | 0.0 | 0.00 | 0.05 | 0.05 | 82 | 1007.9 |
| 20260505024206 | 9 | 260 | 0.0 | 0.0 | 0.00 | 0.05 | 0.05 | 82 | 1007.8 |
| 20260505023703 | 9 | 260 | 0.0 | 0.0 | 0.00 | 0.05 | 0.05 | 81 | 1008.1 |
| 20260505023200 | 9 | 260 | 0.0 | 0.0 | 0.00 | 0.05 | 0.05 | 81 | 1008.2 |
| 20260505022658 | 10 | 260 | 0.0 | 0.0 | 0.00 | 0.05 | 0.05 | 81 | 1008.2 |
| 20260505022154 | 10 | 260 | 0.0 | 0.0 | 0.00 | 0.05 | 0.05 | 80 | 1007.9 |
| 20260505021651 | 10 | 260 | 0.0 | 0.0 | 0.00 | 0.05 | 0.05 | 79 | 1008.2 |
| 20260505021148 | 10 | 260 | 0.0 | 0.0 | 0.00 | 0.05 | 0.05 | 78 | 1008.2 |
| 20260505020643 | 10 | 260 | 0.0 | 0.0 | 0.00 | 0.05 | 0.05 | 78 | 1008.3 |
| 20260505020140 | 10 | 260 | 0.0 | 0.0 | 0.00 | 0.05 | 0.05 | 78 | 1007.9 |
| 20260505015637 | 10 | 259 | 0.0 | 0.0 | 0.00 | 0.05 | 0.05 | 78 | 1008.2 |
| 20260505015133 | 10 | 290 | 0.0 | 0.0 | 0.00 | 0.05 | 0.05 | 77 | 1008.2 |
| 20260505014630 | 10 | 290 | 0.0 | 0.0 | 0.00 | 0.05 | 0.05 | 77 | 1008.2 |
| 20260505014127 | 10 | 290 | 0.0 | 0.0 | 0.00 | 0.05 | 0.05 | 77 | 1008.3 |
| 20260505013625 | 10 | 290 | 0.0 | 0.0 | 0.00 | 0.05 | 0.05 | 77 | 1008.1 |
| 20260505013122 | 10 | 290 | 0.0 | 0.0 | 0.00 | 0.05 | 0.05 | 76 | 1008.1 |
| 20260505012620 | 10 | 292 | 0.0 | 0.0 | 0.00 | 0.05 | 0.05 | 76 | 1008.0 |
| 20260505012111 | 10 | 302 | 0.0 | 0.0 | 0.00 | 0.05 | 0.05 | 76 | 1008.1 |
| 20260505011607 | 10 | 304 | 0.0 | 1.6 | 0.00 | 0.05 | 0.05 | 76 | 1007.9 |
| 20260505011105 | 10 | 283 | 0.0 | 0.0 | 0.00 | 0.05 | 0.05 | 76 | 1008.0 |
| 20260505010604 | 10 | 254 | 0.0 | 0.0 | 0.00 | 0.05 | 0.05 | 76 | 1007.9 |
| 20260505005557 | 10 | 255 | 0.0 | 0.0 | 0.00 | 0.05 | 0.05 | 75 | 1007.6 |
| 20260505005055 | 10 | 255 | 0.0 | 0.0 | 0.00 | 0.05 | 0.05 | 75 | 1007.5 |
| 20260505004552 | 11 | 254 | 0.0 | 0.0 | 0.00 | 0.05 | 0.05 | 74 | 1007.5 |
| 20260505004049 | 11 | 254 | 0.0 | 0.0 | 0.00 | 0.05 | 0.05 | 74 | 1007.6 |
| 20260505003546 | 11 | 254 | 0.0 | 0.0 | 0.00 | 0.05 | 0.05 | 74 | 1007.2 |
| 20260505003043 | 11 | 254 | 0.0 | 0.0 | 0.00 | 0.05 | 0.05 | 72 | 1007.1 |
| 20260505002543 | 11 | 254 | 0.0 | 0.0 | 0.00 | 0.05 | 0.05 | 71 | 1007.0 |
| 20260505002037 | 11 | 254 | 0.0 | 0.0 | 0.00 | 0.05 | 0.05 | 71 | 1006.9 |
| 20260505001534 | 12 | 254 | 0.0 | 0.0 | 0.00 | 0.05 | 0.05 | 70 | 1006.8 |
| 20260505001031 | 12 | 254 | 0.0 | 0.0 | 0.00 | 0.05 | 0.05 | 70 | 1006.8 |
| 20260505000528 | 12 | 254 | 0.0 | 0.0 | 0.00 | 0.05 | 0.05 | 68 | 1006.7 |
| 20260505000026 | 13 | 254 | 0.0 | 0.0 | 0.00 | 0.05 | 0.05 | 66 | 1006.4 |
| 20260504235522 | 13 | 254 | 0.0 | 0.0 | 0.00 | 0.05 | 0.05 | 64 | 1006.5 |
| 20260504235019 | 13 | 253 | 0.0 | 0.0 | 0.00 | 0.05 | 0.05 | 61 | 1006.6 |
| 20260504234516 | 14 | 253 | 0.0 | 0.0 | 0.00 | 0.05 | 0.05 | 59 | 1006.5 |
| 20260504234013 | 15 | 254 | 0.0 | 0.0 | 0.00 | 0.05 | 0.05 | 56 | 1006.5 |
| 20260504233508 | 15 | 254 | 0.0 | 0.0 | 0.00 | 0.05 | 0.05 | 54 | 1006.5 |
| 20260504233006 | 15 | 254 | 0.0 | 0.0 | 0.00 | 0.05 | 0.05 | 55 | 1006.6 |
| 20260504232502 | 16 | 253 | 0.0 | 0.0 | 0.00 | 0.05 | 0.05 | 53 | 1006.4 |
| 20260504232000 | 16 | 252 | 0.0 | 0.0 | 0.00 | 0.05 | 0.05 | 52 | 1006.4 |
| 20260504231456 | 16 | 255 | 0.0 | 0.0 | 0.00 | 0.05 | 0.05 | 49 | 1006.3 |
| 20260504230952 | 16 | 255 | 0.0 | 0.0 | 0.00 | 0.05 | 0.05 | 49 | 1006.1 |
| 20260504230449 | 17 | 265 | 0.0 | 0.0 | 0.00 | 0.05 | 0.05 | 48 | 1006.2 |
| 20260504225948 | 17 | 262 | 0.0 | 0.0 | 0.00 | 0.05 | 0.05 | 46 | 1006.1 |
| 20260504225444 | 17 | 270 | 0.0 | 1.6 | 0.00 | 0.05 | 0.05 | 47 | 1006.3 |
| 20260504224942 | 17 | 268 | 0.0 | 0.0 | 0.00 | 0.05 | 0.05 | 46 | 1006.3 |
| 20260504224438 | 17 | 243 | 0.0 | 3.2 | 0.00 | 0.05 | 0.05 | 45 | 1006.1 |
| 20260504223936 | 17 | 276 | 1.6 | 3.2 | 0.00 | 0.05 | 0.05 | 45 | 1006.1 |
| 20260504223431 | 17 | 259 | 0.0 | 4.8 | 0.00 | 0.05 | 0.05 | 45 | 1006.2 |
| 20260504222927 | 18 | 248 | 0.0 | 1.6 | 0.00 | 0.05 | 0.05 | 46 | 1005.9 |
| 20260504222425 | 18 | 253 | 1.6 | 4.8 | 0.00 | 0.05 | 0.05 | 45 | 1006.1 |
| 20260504221923 | 17 | 243 | 0.0 | 4.8 | 0.00 | 0.05 | 0.05 | 46 | 1006.2 |
| 20260504221419 | 18 | 338 | 3.2 | 4.8 | 0.00 | 0.05 | 0.05 | 45 | 1006.1 |
| 20260504220916 | 17 | 268 | 0.0 | 1.6 | 0.00 | 0.05 | 0.05 | 47 | 1006.1 |
| 20260504220413 | 17 | 269 | 3.2 | 4.8 | 0.00 | 0.05 | 0.05 | 46 | 1006.0 |
| 20260504215910 | 18 | 231 | 0.0 | 6.4 | 0.00 | 0.05 | 0.05 | 46 | 1006.1 |
| 20260504215407 | 18 | 281 | 1.6 | 4.8 | 0.00 | 0.05 | 0.05 | 45 | 1006.1 |
| 20260504214903 | 18 | 283 | 0.0 | 1.6 | 0.00 | 0.05 | 0.05 | 47 | 1006.2 |
| 20260504214359 | 18 | 269 | 0.0 | 3.2 | 0.00 | 0.05 | 0.05 | 46 | 1006.2 |
| 20260504213856 | 18 | 247 | 0.0 | 0.0 | 0.00 | 0.05 | 0.05 | 47 | 1006.2 |
| 20260504213352 | 18 | 237 | 1.6 | 4.8 | 0.00 | 0.05 | 0.05 | 46 | 1006.2 |
| 20260504212850 | 17 | 294 | 1.6 | 4.8 | 0.00 | 0.05 | 0.05 | 48 | 1006.3 |
| 20260504212346 | 17 | 287 | 1.6 | 4.8 | 0.00 | 0.05 | 0.05 | 49 | 1006.5 |
| 20260504211844 | 17 | 250 | 0.0 | 1.6 | 0.00 | 0.05 | 0.05 | 49 | 1006.2 |
| 20260504211339 | 17 | 274 | 4.8 | 6.4 | 0.00 | 0.05 | 0.05 | 47 | 1006.2 |
| 20260504210837 | 18 | 205 | 1.6 | 9.7 | 0.00 | 0.05 | 0.05 | 47 | 1006.3 |
| 20260504210334 | 18 | 214 | 0.0 | 3.2 | 0.00 | 0.05 | 0.05 | 47 | 1006.3 |
| 20260504205831 | 18 | 229 | 4.8 | 12.9 | 0.00 | 0.05 | 0.05 | 47 | 1006.1 |
| 20260504205329 | 18 | 235 | 1.6 | 3.2 | 0.00 | 0.05 | 0.05 | 47 | 1006.1 |
| 20260504204827 | 18 | 268 | 0.0 | 3.2 | 0.00 | 0.05 | 0.05 | 48 | 1006.0 |
| 20260504204325 | 18 | 165 | 3.2 | 6.4 | 0.00 | 0.05 | 0.05 | 48 | 1005.8 |
| 20260504203824 | 17 | 277 | 0.0 | 3.2 | 0.00 | 0.05 | 0.05 | 49 | 1006.0 |
| 20260504203321 | 17 | 207 | 6.4 | 11.3 | 0.00 | 0.05 | 0.05 | 48 | 1006.1 |
| 20260504202816 | 17 | 231 | 0.0 | 6.4 | 0.00 | 0.05 | 0.05 | 50 | 1006.1 |
| 20260504202314 | 17 | 179 | 3.2 | 4.8 | 0.00 | 0.05 | 0.05 | 49 | 1005.9 |
| 20260504201810 | 17 | 217 | 4.8 | 12.9 | 0.00 | 0.05 | 0.05 | 50 | 1006.1 |
| 20260504201308 | 17 | 245 | 3.2 | 6.4 | 0.00 | 0.05 | 0.05 | 50 | 1006.1 |